Regional Weather Roundup
Issued by NWS

Home | Current Version | Previous Version | Text Only | Print | Product List | Glossary Off
Versions: 1 2 3 4 5 6 7 8 9 10 11 12 13 14 15 16 17 18 19 20 21 22 23 24 25 26 27 28 29 30 31 32 33 34 35 36 37 38 39 40 41 42 43 44 45 46 47 48 49 50

000
ASUS44 KMEG 150300
RWRTN
TENNESSEE HOURLY STATE WEATHER ROUNDUP
NATIONAL WEATHER SERVICE MEMPHIS TN
900 PM CST THU DEC 14 2017

TNZ002-004-019-021-049-052-054-088>092-150400-
WEST TENNESSEE

CITY           SKY/WX    TMP DP  RH WIND       PRES   REMARKS
MEMPHIS INTL   PTCLDY    35  26  69 N5        30.11S WCI  31
NWS MEMPHIS      N/A     34 N/A N/A MISG        N/A
JACKSON        CLEAR     31  24  75 CALM      30.12R
DYERSBURG      CLEAR     31  25  78 NE3       30.14R
$$

TNZ008-025-027-028-033-062-065-066-150400-
NORTH MIDDLE TENNESSEE

CITY           SKY/WX    TMP DP  RH WIND       PRES   REMARKS
NASHVILLE      CLOUDY    34  22  61 NW7       30.10R WCI  28
CLARKSVILLE    CLOUDY    33  20  58 VRB7G69   30.10R WCI  27
SMYRNA         CLEAR     28  22  78 W7        30.11R WCI  21
CROSSVILLE     CLOUDY    31  24  75 N3        30.00R
$$

TNZ061-075-076-078-094-096-097-150400-
SOUTH MIDDLE TENNESSEE

CITY           SKY/WX    TMP DP  RH WIND       PRES   REMARKS
$$

TNZ017-018-042-046-047-150400-
NORTHEAST TENNESSEE

CITY           SKY/WX    TMP DP  RH WIND       PRES   REMARKS
TRI CITIES     PTCLDY    30  26  85 CALM      29.99R
$$

TNZ012-013-036-069-073-074-150400-
CENTRAL EAST TENNESSEE

CITY           SKY/WX    TMP DP  RH WIND       PRES   REMARKS
KNOXVILLE      PTCLDY    35  28  75 N5        30.01R WCI  31
OAK RIDGE      CLEAR     33  27  78 CALM      30.04R
$$

TNZ083-085-099-150400-
SOUTHEAST TENNESSEE

CITY           SKY/WX    TMP DP  RH WIND       PRES   REMARKS
CHATTANOOGA    CLOUDY    39  28  64 N7        30.04R WCI  34
$$

SKY/WX REPORTED AS FAIR MEANS FEW OR NO CLOUDS BELOW
12 THOUSAND FEET.





USA.gov is the U.S. government's official web portal to all federal, state and local government web resources and services.